Date String (YYYY-MM-DD hh:mm:ss) UTC,Instrument flags,Ambient pressure (hPa),Sample flow (lpm),Bypass flow (lpm),Sample temperature (°C),Ambient temperature (°C),ASC tube jacket temperature (°C),LED temperature (°C),Box temperature (°C),Sample RH (%),Span deviation,Mass concentration (μg/m³),Mass concentration (μg/m³),Mass concentration (μg/m³)
DateTimeUTC,F1_M11,P_M11,Q1_M11,Q2_M11,T1_M11,T2_M11,T3_M11,T4_M11,T5_M11,U1_M11,ZSPAN_M11,X0_M11,X2_M11,X1_M11
2021-10-31 07:00:00,,0829.9,5.01,0.00,29.5,28.6,00.0,38.5,31.2,15.4,0000.0,0004.56,0002.07,0001.54
2021-10-31 07:01:00,,0829.9,4.99,0.00,29.5,28.6,00.0,38.5,31.2,15.4,0000.0,0004.49,0002.03,0001.54
2021-10-31 07:02:00,,0829.9,5.01,0.00,29.5,28.6,00.0,38.5,31.2,15.4,0000.0,0004.44,0002.02,0001.53
2021-10-31 07:03:00,,0829.9,5.01,0.00,29.5,28.6,00.0,38.5,31.2,15.3,0000.0,0004.48,0002.07,0001.54
2021-10-31 07:04:00,,0830.0,5.01,0.00,29.5,28.6,00.0,38.5,31.2,15.3,0000.0,0004.61,0002.06,0001.53
2021-10-31 07:05:00,,0830.0,4.99,0.00,29.5,28.6,00.0,38.5,31.2,15.3,0000.0,0005.44,0002.01,0001.52
2021-10-31 07:06:00,,0830.0,5.01,0.00,29.5,28.5,00.0,38.5,31.2,15.3,0000.0,0005.52,0001.99,0001.49
2021-10-31 07:07:00,,0829.9,4.99,0.00,29.5,28.5,00.0,38.5,31.2,15.2,0000.0,0004.80,0001.99,0001.48
2021-10-31 07:08:00,,0829.9,5.00,0.00,29.4,28.6,00.0,38.5,31.2,15.3,0000.0,0004.47,0001.98,0001.45
2021-10-31 07:09:00,,0830.0,5.00,0.00,29.4,28.6,00.0,38.5,31.2,15.3,0000.0,0004.34,0001.94,0001.43
2021-10-31 07:10:00,,0830.0,4.99,0.00,29.4,28.6,00.0,38.5,31.2,15.3,0000.0,0004.34,0001.93,0001.41
2021-10-31 07:11:00,,0830.0,5.01,0.00,29.4,28.5,00.0,38.5,31.2,15.3,0000.0,0004.60,0001.93,0001.40
2021-10-31 07:12:00,,0830.0,4.99,0.00,29.4,28.5,00.0,38.5,31.2,15.3,0000.0,0005.17,0001.95,0001.39
2021-10-31 07:13:00,,0830.0,5.00,0.00,29.4,28.5,00.0,38.5,31.2,15.3,0000.0,0006.02,0002.01,0001.41
2021-10-31 07:14:00,,0829.9,5.00,0.00,29.4,28.5,00.0,38.5,31.2,15.3,0000.0,0006.58,0001.95,0001.39
2021-10-31 07:15:00,,0829.9,5.00,0.00,29.4,28.5,00.0,38.5,31.2,15.3,0000.0,0006.40,0001.92,0001.38
2021-10-31 07:16:00,,0829.9,5.01,0.00,29.4,28.5,00.0,38.5,31.2,15.3,0000.0,0005.89,0001.95,0001.39
2021-10-31 07:17:00,,0830.0,5.00,0.00,29.4,28.5,00.0,38.5,31.2,15.3,0000.0,0005.78,0002.00,0001.39
2021-10-31 07:18:00,,0829.9,5.00,0.00,29.4,28.5,00.0,38.5,31.2,15.3,0000.0,0005.88,0002.02,0001.40
2021-10-31 07:19:00,,0829.9,5.00,0.00,29.4,28.5,00.0,38.5,31.2,15.3,0000.0,0006.50,0002.00,0001.40
2021-10-31 07:20:00,,0829.9,5.00,0.00,29.4,28.5,00.0,38.5,31.2,15.4,0000.0,0006.60,0002.03,0001.40
2021-10-31 07:21:00,,0829.9,5.00,0.00,29.4,28.5,00.0,38.5,31.2,15.4,0000.0,0006.58,0002.01,0001.40
2021-10-31 07:22:00,,0829.9,4.99,0.00,29.4,28.5,00.0,38.5,31.2,15.4,0000.0,0006.45,0001.99,0001.41
2021-10-31 07:23:00,,0829.9,5.01,0.00,29.4,28.5,00.0,38.5,31.2,15.4,0000.0,0007.03,0001.95,0001.41
2021-10-31 07:24:00,,0829.9,4.99,0.00,29.4,28.5,00.0,38.5,31.2,15.4,0000.0,0007.16,0001.92,0001.41
2021-10-31 07:25:00,,0829.8,5.00,0.00,29.4,28.5,00.0,38.5,31.2,15.4,0000.0,0006.19,0001.93,0001.42
2021-10-31 07:26:00,,0829.8,5.00,0.00,29.4,28.5,00.0,38.5,31.2,15.4,0000.0,0006.29,0001.98,0001.43
2021-10-31 07:27:00,,0829.8,5.00,0.00,29.4,28.5,00.0,38.5,31.2,15.4,0000.0,0006.08,0001.97,0001.43
2021-10-31 07:28:00,,0829.8,5.00,0.00,29.4,28.5,00.0,38.5,31.2,15.4,0000.0,0006.22,0002.00,0001.43
2021-10-31 07:29:00,,0829.9,4.98,0.00,29.4,28.5,00.0,38.4,31.2,15.4,0000.0,0006.25,0002.00,0001.43
2021-10-31 07:30:00,,0829.8,5.01,0.00,29.4,28.5,00.0,38.4,31.2,15.5,0000.0,0006.14,0002.02,0001.44
2021-10-31 07:31:00,,0829.8,5.01,0.00,29.4,28.5,00.0,38.4,31.2,15.4,0000.0,0006.42,0002.05,0001.45
2021-10-31 07:32:00,,0829.8,5.00,0.00,29.4,28.5,00.0,38.4,31.1,15.4,0000.0,0006.54,0002.08,0001.46
2021-10-31 07:33:00,,0829.9,5.00,0.00,29.4,28.5,00.0,38.4,31.1,15.4,0000.0,0006.57,0002.09,0001.47
2021-10-31 07:34:00,,0829.9,5.00,0.00,29.4,28.5,00.0,38.4,31.1,15.4,0000.0,0005.34,0002.10,0001.47
2021-10-31 07:35:00,,0829.9,4.99,0.00,29.4,28.4,00.0,38.4,31.1,15.4,0000.0,0004.94,0002.04,0001.46
2021-10-31 07:36:00,,0829.9,5.01,0.00,29.4,28.4,00.0,38.4,31.1,15.4,0000.0,0005.44,0002.03,0001.47
2021-10-31 07:37:00,,0829.8,4.99,0.00,29.4,28.4,00.0,38.4,31.1,15.4,0000.0,0006.08,0002.03,0001.46
2021-10-31 07:38:00,,0829.9,4.99,0.00,29.4,28.4,00.0,38.4,31.1,15.4,0000.0,0007.44,0002.04,0001.46
2021-10-31 07:39:00,,0829.9,5.00,0.00,29.3,28.4,00.0,38.4,31.1,15.5,0000.0,0008.10,0002.00,0001.47
2021-10-31 07:40:00,,0829.9,5.00,0.00,29.3,28.4,00.0,38.4,31.1,15.5,0000.0,0008.50,0001.96,0001.46
2021-10-31 07:41:00,,0829.9,5.01,0.00,29.3,28.4,00.0,38.4,31.1,15.5,0000.0,0008.29,0001.96,0001.46
2021-10-31 07:42:00,,0829.8,4.99,0.00,29.3,28.4,00.0,38.4,31.1,15.5,0000.0,0008.15,0001.95,0001.45
2021-10-31 07:43:00,,0829.9,5.01,0.00,29.3,28.4,00.0,38.4,31.1,15.5,0000.0,0008.77,0001.94,0001.45
2021-10-31 07:44:00,,0829.9,4.99,0.00,29.3,28.4,00.0,38.4,31.1,15.5,0000.0,0009.22,0001.95,0001.43
2021-10-31 07:45:00,,0829.9,5.01,0.00,29.3,28.4,00.0,38.4,31.0,15.4,0000.0,0009.25,0001.98,0001.43
2021-10-31 07:46:00,,0829.9,5.00,0.00,29.3,28.3,00.0,38.4,31.0,15.4,0000.0,0009.21,0002.02,0001.44
2021-10-31 07:47:00,,0829.9,5.00,0.00,29.3,28.3,00.0,38.4,31.0,15.4,0000.0,0009.03,0002.02,0001.42
2021-10-31 07:48:00,,0829.9,4.99,0.00,29.3,28.3,00.0,38.4,31.0,15.4,0000.0,0008.77,0002.01,0001.42
2021-10-31 07:49:00,,0829.9,5.00,0.00,29.3,28.3,00.0,38.3,31.0,15.4,0000.0,0008.12,0002.01,0001.42
2021-10-31 07:50:00,,0829.9,5.00,0.00,29.3,28.3,00.0,38.3,31.0,15.4,0000.0,0007.61,0001.99,0001.41
2021-10-31 07:51:00,,0829.8,5.01,0.00,29.3,28.3,00.0,38.3,31.0,15.4,0000.0,0006.82,0001.95,0001.39
2021-10-31 07:52:00,,0829.8,5.00,0.00,29.2,28.3,00.0,38.3,31.0,15.4,0000.0,0006.67,0001.95,0001.39
2021-10-31 07:53:00,,0830.0,5.00,0.00,29.2,28.3,00.0,38.3,31.0,15.4,0000.0,0006.51,0001.91,0001.38
2021-10-31 07:54:00,,0829.8,5.01,0.00,29.2,28.3,00.0,38.3,31.0,15.4,0000.0,0005.63,0001.93,0001.37
2021-10-31 07:55:00,,0829.8,4.99,0.00,29.2,28.3,00.0,38.3,31.0,15.4,0000.0,0004.64,0001.92,0001.37
2021-10-31 07:56:00,,0829.8,5.00,0.00,29.2,28.3,00.0,38.3,31.0,15.4,0000.0,0004.67,0001.90,0001.36
2021-10-31 07:57:00,,0829.9,5.01,0.00,29.2,28.3,00.0,38.3,31.0,15.4,0000.0,0004.90,0001.89,0001.35
2021-10-31 07:58:00,,0829.9,5.00,0.00,29.2,28.3,00.0,38.3,31.0,15.4,0000.0,0005.89,0001.91,0001.34
2021-10-31 07:59:00,,0829.9,5.00,0.00,29.2,28.3,00.0,38.3,31.0,15.4,0000.0,0006.99,0001.89,0001.33
